Location: Cazarilh
(42.9578°N, 0.5819°E)
Time: 03:55:12
(UTC+00:00)

Okean O Rocket - Pass Details

Date: 11 December 2019
Orbit: 624 x 644 km, 98.2° (Epoch: 20 January)

Event Time Altitude Azimuth Distance (km) Brightness Sun altitude
Rises 04:39:33 0° 27° (NNE) 2,931 5.3 -28.1°
Reaches altitude 10° 04:42:12 10° 43° (NE) 2,021 4.6 -27.7°
Maximum altitude 04:45:35 22° 94° (E) 1,409 4.1 -27.0°
Drops below altitude 10° 04:48:58 10° 145° (SE) 2,018 4.7 -26.4°
Sets 04:51:36 0° 161° (SSE) 2,925 5.4 -26.0°
